Regional Weather Roundup
Issued by NWS

Home | Current Version | Previous Version | Text Only | Print | Product List | Glossary On
Versions: 1 2 3 4 5 6 7 8 9 10 11 12 13 14 15 16 17 18 19 20 21 22 23 24 25 26 27 28 29 30 31 32 33 34 35 36 37 38 39 40 41 42 43 44 45 46 47 48 49 50
000
ASUS43 KDTX 301601
RWRMI
MICHIGAN HOURLY REGIONAL WEATHER ROUNDUP
NATIONAL WEATHER SERVICE DETROIT/PONTIAC MI
1200 PM EDT WED JUL 30 2014

NOTE: "FAIR" INDICATES FEW OR NO CLOUDS BELOW 12,000 FEET WITH NO
SIGNIFICANT WEATHER AND/OR OBSTRUCTION TO VISIBILITY.

MIZ047>049-052>055-059>063-066>070-074>076-081>083-301700-
SOUTHEAST LOWER MICHIGAN

CITY           SKY/WX    TMP DP  RH WIND       PRES   REMARKS
ADRIAN         PTSUNNY   71  56  58 NW5       30.03S
ALMA           CLOUDY    66  56  68 CALM      30.03S
ANN ARBOR      PTSUNNY   69  55  60 W7        30.02S
BAD AXE        FAIR      67  54  62 NW8       30.00S
CARO           FAIR      70  55  59 NW6       30.00S
DETROIT CITY   PTSUNNY   71  56  58 W5        30.01S
DETROIT        CLOUDY    70  58  65 VRB5      30.02S
FLINT          PTSUNNY   69  56  62 NW5       30.02S
GROSSE ILE     FAIR      70  59  68 CALM      30.00S
HILLSDALE      FAIR      71  58  62 W7        30.03S
HOWELL         PTSUNNY   66  58  73 W3        30.02F

CITY           SKY/WX    TMP DP  RH WIND       PRES   REMARKS
JACKSON        PTSUNNY   69  58  67 VRB3      30.03R
LAMBERTVILLE   FAIR      72  55  56 W5        30.02S
LANSING        PTSUNNY   68  56  65 CALM      30.03R
LAPEER         PTSUNNY   66  56  72 NW6       30.02S
MASON          PTSUNNY   66  57  71 CALM      30.03S
MONROE         FAIR      72  57  60 CALM      30.00S
MT. CLEMENS    PTSUNNY   68  57  67 NW6       30.00S
PONTIAC        PTSUNNY   67  56  67 NW8       30.02R
PORT HOPE        N/A     65  55  70 CALM      29.99S
PORT HURON     CLOUDY    66  57  72 CALM      30.00F
TRI CITIES     FAIR      69  51  52 N3        30.02S
TROY           CLOUDY    66  58  75 CALM      30.03R
SAGINAW HB     FAIR      68  52  56 CALM      30.01S
$$
MIZ043>046-050>051-056>058-064>065-071>073-077>080-301700-
SOUTHWEST LOWER MICHIGAN

CITY           SKY/WX    TMP DP  RH WIND       PRES   REMARKS
BATTLE CREEK   PTSUNNY   70  58  65 NW10      30.04R
BENTON HARBOR  FAIR      67  58  72 W8        30.04R
BIG RAPIDS     FAIR      69  49  48 NW5G18    30.01S
COLDWATER      FAIR      72  59  64 W8        30.03S
FREMONT        PTSUNNY   69  54  58 N5        30.02S
HOLLAND        FAIR      69  60  73 VRB7      30.04R
GRAND RAPIDS   FAIR      68  58  70 VRB5      30.03S
IONIA          PTSUNNY   67  56  66 W3        30.02S
KALAMAZOO      FAIR      72  58  61 NW10      30.03S
LUDINGTON      FAIR      69  53  56 N7        30.04R
MARSHALL       PTSUNNY   69  59  69 NW6       30.03
MOUNT PLEASANT FAIR      69  49  49 NW5       30.01S
MUSKEGON       FAIR      70  58  65 W8        30.03R
SOUTH HAVEN    FAIR      67  60  78 NW6       30.04S
$$
MIZ016>042-301700-
NORTHERN LOWER MICHIGAN

CITY           SKY/WX    TMP DP  RH WIND       PRES   REMARKS
ALPENA         FAIR      66  54  65 N12       30.01R
BEAVER ISLAND  FAIR      64  53  68 N3        30.02F
BELLAIRE       FAIR      65  53  64 N6        30.01S
CADILLAC       FAIR      67  52  58 N5        30.02S
CHARLEVOIX     FAIR      62  55  79 NW6       30.05S
FRANKFORT      FAIR      65  55  71 W7        30.03S
GAYLORD        PTSUNNY   64  51  62 VRB5      30.01S
GRAYLING       PTSUNNY   68  53  57 NW6       30.02S
HARBOR SPRINGS PTSUNNY   63  55  75 SW8       30.01S
HOUGHTON LAKE  FAIR      66  51  58 W8        30.02S
MANISTEE       FAIR      64  52  63 NW8       30.04S
OSCODA         FAIR      67  55  64 E8G17     29.99S
PELLSTON       FAIR      67  48  50 N6        30.01S
ROGERS CITY    FAIR      59  56  89 N8        30.02S
TRAVERSE CITY  FAIR      68  52  56 VRB3      30.00F
$$
MIZ007>008-015-301700-
EASTERN UPPER MICHIGAN

CITY           SKY/WX    TMP DP  RH WIND       PRES   REMARKS
KINROSS        FAIR      63  52  67 NW10G16   30.00S
MACKINAC ISLAN FAIR      62  52  70 W3        30.00F
NEWBERRY       FAIR      64  51  62 NW7       30.01S
S. S. MARIE    FAIR      63  51  65 NW8       29.99S
MUNISING         N/A     62  51  67 NE6       30.02F
$$
MIZ004>006-011>014-085-301700-
CENTRAL UPPER MICHIGAN

CITY           SKY/WX    TMP DP  RH WIND       PRES   REMARKS
MANISTIQUE     FAIR      67  51  56 N9        30.01F
ESCANABA       FAIR      66  50  55 NW9       30.02F
MENOMINEE      FAIR      64  52  63 N6        30.03S
$$
MIZ001>003-009>011-084-301700-
WESTERN UPPER MICHIGAN

CITY           SKY/WX    TMP DP  RH WIND       PRES   REMARKS
IRON MOUNTAIN  FAIR      68  46  45 N10       30.04S
HOUGHTON       FAIR      62  52  69 W15       30.02F
COPPER HARBOR    N/A     65  50  58 N8G16     29.99F
$$

ABBREVIATIONS USED IN REMARKS
   TC - TEMPERATURE IN CELSIUS
  WCI - WIND CHILL INDEX
   HX - HEAT INDEX
  VSB - VISIBILITY



USA.gov is the U.S. government's official web portal to all federal, state and local government web resources and services.